| time (UTC) | temp C | wind direction | speed KPH | gust KPH | rain 1hr cm | rain 24hr cm | rain mn cm | humidity % | barometer mb |
| 20260502181537 | 7 | 308 | 12.9 | 25.7 | 0.00 | 0.00 | 0.00 | 51 | 1014.9 |
| 20260502163302 | 8 | 254 | 9.7 | 20.9 | 0.00 | 0.00 | 0.00 | 49 | 1015.1 |
| 20260502160512 | 7 | 64 | 6.4 | 20.9 | 0.00 | 0.00 | 0.00 | 51 | 1015.5 |
| 20260502123038 | 2 | 347 | 3.2 | 14.5 | 0.00 | 0.00 | 0.00 | 79 | 1015.2 |
| 20260502121537 | 2 | 324 | 4.8 | 12.9 | 0.00 | 0.00 | 0.00 | 80 | 1015.4 |
| 20260502114539 | 2 | 318 | 1.6 | 9.7 | 0.00 | 0.00 | 0.00 | 82 | 1015.3 |
| 20260502113054 | 2 | 0 | 1.6 | 6.4 | 0.00 | 0.00 | 0.00 | 82 | 1015.1 |
| 20260502111543 | 1 | 0 | 0.0 | 3.2 | 0.00 | 0.00 | 0.00 | 81 | 1015.1 |
| 20260502110037 | 1 | 303 | 0.0 | 4.8 | 0.00 | 0.00 | 0.00 | 80 | 1014.9 |
| 20260502104549 | 1 | 0 | 0.0 | 3.2 | 0.00 | 0.00 | 0.00 | 79 | 1014.8 |
| 20260502103059 | 2 | 0 | 0.0 | 8.0 | 0.00 | 0.00 | 0.00 | 78 | 1014.9 |
| 20260502101547 | 2 | 0 | 1.6 | 6.4 | 0.00 | 0.00 | 0.00 | 77 | 1015.1 |
| 20260502090258 | 2 | 0 | 0.0 | 4.8 | 0.00 | 0.00 | 0.00 | 75 | 1015.2 |
| 20260502070255 | 4 | 278 | 3.2 | 8.0 | 0.00 | 0.00 | 0.00 | 68 | 1015.0 |
| 20260502064555 | 4 | 299 | 1.6 | 11.3 | 0.00 | 0.00 | 0.00 | 66 | 1015.2 |
| 20260502061620 | 4 | 0 | 4.8 | 12.9 | 0.00 | 0.00 | 0.00 | 70 | 1015.4 |
| 20260502060039 | 5 | 346 | 4.8 | 16.1 | 0.00 | 0.00 | 0.00 | 70 | 1015.6 |
| 20260502053246 | 5 | 321 | 4.8 | 17.7 | 0.00 | 0.00 | 0.00 | 73 | 1015.6 |
| 20260502051538 | 5 | 0 | 6.4 | 19.3 | 0.00 | 0.00 | 0.00 | 72 | 1015.6 |
| 20260502043502 | 6 | 323 | 12.9 | 22.5 | 0.00 | 0.00 | 0.00 | 76 | 1015.8 |
| 20260502041931 | 6 | 343 | 8.0 | 19.3 | 0.00 | 0.00 | 0.00 | 76 | 1015.7 |
| 20260502040511 | 6 | 297 | 9.7 | 16.1 | 0.00 | 0.00 | 0.00 | 76 | 1015.6 |
| 20260502034814 | 6 | 328 | 1.6 | 12.9 | 0.00 | 0.00 | 0.00 | 75 | 1015.7 |
| 20260502030314 | 6 | 287 | 6.4 | 16.1 | 0.00 | 0.00 | 0.00 | 73 | 1015.9 |
| 20260502023057 | 7 | 308 | 6.4 | 22.5 | 0.00 | 0.00 | 0.00 | 71 | 1015.3 |
| 20260502022047 | 7 | 268 | 9.7 | 25.7 | 0.00 | 0.00 | 0.00 | 73 | 1015.3 |
| 20260502020037 | 7 | 336 | 6.4 | 16.1 | 0.00 | 0.00 | 0.00 | 74 | 1015.2 |
| 20260502014536 | 7 | 296 | 9.7 | 17.7 | 0.00 | 0.00 | 0.00 | 75 | 1014.4 |
| 20260502013037 | 8 | 282 | 4.8 | 24.1 | 0.00 | 0.00 | 0.00 | 75 | 1014.4 |
| 20260502011729 | 8 | 319 | 11.3 | 25.7 | 0.00 | 0.00 | 0.00 | 75 | 1014.2 |
| 20260502002054 | 9 | 321 | 4.8 | 20.9 | 0.00 | 0.00 | 0.00 | 71 | 1013.3 |
| 20260501234950 | 10 | 360 | 8.0 | 22.5 | 0.00 | 0.00 | 0.00 | 65 | 1012.6 |
| 20260501233050 | 11 | 351 | 17.7 | 32.2 | 0.00 | 0.00 | 0.00 | 59 | 1012.4 |
| 20260501231546 | 13 | 308 | 12.9 | 20.9 | 0.00 | 0.00 | 0.00 | 46 | 1011.9 |
| 20260501230110 | 14 | 282 | 8.0 | 19.3 | 0.00 | 0.00 | 0.00 | 42 | 1011.8 |
| 20260501224548 | 15 | 256 | 9.7 | 30.6 | 0.00 | 0.00 | 0.00 | 41 | 1011.8 |
| 20260501223049 | 15 | 270 | 12.9 | 37.0 | 0.00 | 0.00 | 0.00 | 39 | 1011.7 |
| 20260501221537 | 15 | 283 | 8.0 | 25.7 | 0.00 | 0.00 | 0.00 | 41 | 1011.7 |
| 20260501220039 | 15 | 238 | 14.5 | 35.4 | 0.00 | 0.00 | 0.00 | 36 | 1011.7 |
| 20260501214535 | 16 | 251 | 22.5 | 40.2 | 0.00 | 0.00 | 0.00 | 34 | 1011.8 |
| 20260501213045 | 15 | 271 | 17.7 | 33.8 | 0.00 | 0.00 | 0.00 | 35 | 1011.7 |
| 20260501211550 | 16 | 258 | 17.7 | 30.6 | 0.00 | 0.00 | 0.00 | 34 | 1011.8 |
| 20260501210041 | 16 | 303 | 12.9 | 33.8 | 0.00 | 0.00 | 0.00 | 35 | 1011.9 |
| 20260501204541 | 15 | 236 | 14.5 | 33.8 | 0.00 | 0.00 | 0.00 | 33 | 1011.9 |
| 20260501203040 | 16 | 268 | 20.9 | 37.0 | 0.00 | 0.00 | 0.00 | 32 | 1012.0 |
| 20260501201541 | 16 | 289 | 20.9 | 37.0 | 0.00 | 0.00 | 0.00 | 34 | 1011.9 |
| 20260501200039 | 16 | 216 | 16.1 | 35.4 | 0.00 | 0.00 | 0.00 | 31 | 1012.0 |
| 20260501194537 | 16 | 259 | 19.3 | 40.2 | 0.00 | 0.00 | 0.00 | 32 | 1012.0 |
| 20260501193045 | 16 | 239 | 19.3 | 35.4 | 0.00 | 0.00 | 0.00 | 30 | 1012.2 |
| 20260501191541 | 16 | 231 | 19.3 | 32.2 | 0.00 | 0.00 | 0.00 | 30 | 1012.5 |
| 20260501190038 | 16 | 204 | 14.5 | 27.4 | 0.00 | 0.00 | 0.00 | 33 | 1012.5 |
| 20260501184538 | 16 | 227 | 17.7 | 35.4 | 0.00 | 0.00 | 0.00 | 32 | 1012.7 |